Time,TemperatureF,DewpointF,PressureIn,WindDirection,WindDirectionDegrees,WindSpeedMPH,WindSpeedGustMPH,Humidity,HourlyPrecipIn,Conditions,Clouds,dailyrainin,SoftwareType,DateUTC
2013-04-17 00:11:00,44.1,35.0,30.10,NE,39,10.0,20.0,70,0.00,,,0.00,weatherlink.com 1.10,2013-04-17 04:11:00,
2013-04-17 00:26:00,43.9,35.0,30.11,NNE,23,7.0,15.0,70,0.00,,,0.00,weatherlink.com 1.10,2013-04-17 04:26:00,
2013-04-17 00:41:00,43.5,35.0,30.12,North,11,8.0,12.0,72,0.00,,,0.00,weatherlink.com 1.10,2013-04-17 04:41:00,
2013-04-17 00:56:00,43.3,36.0,30.13,NNW,331,4.0,10.0,74,0.00,,,0.00,weatherlink.com 1.10,2013-04-17 04:56:00,
2013-04-17 01:11:00,43.1,36.0,30.13,North,351,6.0,8.0,75,0.00,,,0.00,weatherlink.com 1.10,2013-04-17 05:11:00,
2013-04-17 01:41:00,42.9,36.0,30.14,NNE,21,6.0,8.0,76,0.00,,,0.00,weatherlink.com 1.10,2013-04-17 05:41:00,
2013-04-17 01:56:00,42.7,35.0,30.14,NNE,13,2.0,6.0,75,0.00,,,0.00,weatherlink.com 1.10,2013-04-17 05:56:00,
2013-04-17 02:11:00,42.6,35.0,30.14,NW,306,4.0,6.0,75,0.00,,,0.00,weatherlink.com 1.10,2013-04-17 06:11:00,
2013-04-17 02:26:00,42.4,35.0,30.14,NW,313,1.0,6.0,76,0.00,,,0.00,weatherlink.com 1.10,2013-04-17 06:26:00,
2013-04-17 02:41:00,42.2,35.0,30.14,WNW,301,5.0,6.0,77,0.00,,,0.00,weatherlink.com 1.10,2013-04-17 06:41:00,
2013-04-17 02:56:00,41.8,36.0,30.14,NNE,12,4.0,7.0,80,0.00,,,0.00,weatherlink.com 1.10,2013-04-17 06:56:00,
2013-04-17 03:11:00,40.9,36.0,30.14,North,360,0.0,5.0,81,0.00,,,0.00,weatherlink.com 1.10,2013-04-17 07:11:00,
2013-04-17 03:26:00,40.7,36.0,30.14,North,360,1.0,4.0,84,0.00,,,0.00,weatherlink.com 1.10,2013-04-17 07:26:00,
2013-04-17 03:41:00,40.9,36.0,30.14,North,360,1.0,4.0,83,0.00,,,0.00,weatherlink.com 1.10,2013-04-17 07:41:00,
2013-04-17 03:56:00,40.5,36.0,30.14,North,5,1.0,4.0,83,0.00,,,0.00,weatherlink.com 1.10,2013-04-17 07:56:00,
2013-04-17 04:11:00,40.0,35.0,30.14,NE,36,1.0,4.0,82,0.00,,,0.00,weatherlink.com 1.10,2013-04-17 08:11:00,
2013-04-17 04:26:00,39.9,34.0,30.15,NNE,29,0.0,4.0,80,0.00,,,0.00,weatherlink.com 1.10,2013-04-17 08:26:00,
2013-04-17 04:41:00,39.6,34.0,30.15,NNE,29,0.0,1.0,81,0.00,,,0.00,weatherlink.com 1.10,2013-04-17 08:41:00,
2013-04-17 04:56:00,39.0,34.0,30.15,NNE,29,1.0,2.0,82,0.00,,,0.00,weatherlink.com 1.10,2013-04-17 08:56:00,
2013-04-17 05:11:00,38.8,34.0,30.15,NNE,29,0.0,0.0,82,0.00,,,0.00,weatherlink.com 1.10,2013-04-17 09:11:00,
2013-04-17 05:26:00,38.5,34.0,30.15,NNE,29,0.0,2.0,83,0.00,,,0.00,weatherlink.com 1.10,2013-04-17 09:26:00,
2013-04-17 05:41:00,38.4,34.0,30.16,NNE,29,0.0,2.0,83,0.00,,,0.00,weatherlink.com 1.10,2013-04-17 09:41:00,
2013-04-17 05:56:00,38.4,33.0,30.17,NE,36,1.0,5.0,82,0.00,,,0.00,weatherlink.com 1.10,2013-04-17 09:56:00,
2013-04-17 06:11:00,38.1,33.0,30.17,NNE,30,0.0,2.0,82,0.00,,,0.00,weatherlink.com 1.10,2013-04-17 10:11:00,
2013-04-17 06:26:00,37.7,33.0,30.18,NNE,30,0.0,0.0,83,0.00,,,0.00,weatherlink.com 1.10,2013-04-17 10:26:00,
2013-04-17 06:41:00,37.5,33.0,30.19,NNE,30,0.0,0.0,83,0.00,,,0.00,weatherlink.com 1.10,2013-04-17 10:41:00,
2013-04-17 06:57:00,37.6,33.0,30.20,NE,51,0.0,0.0,83,0.00,,,0.00,weatherlink.com 1.10,2013-04-17 10:57:00,
2013-04-17 07:12:00,38.4,33.0,30.20,NE,43,0.0,2.0,82,0.00,,,0.00,weatherlink.com 1.10,2013-04-17 11:12:00,
2013-04-17 07:27:00,38.9,34.0,30.21,NNE,25,0.0,4.0,81,0.00,,,0.00,weatherlink.com 1.10,2013-04-17 11:27:00,
2013-04-17 07:42:00,39.4,34.0,30.22,NNE,13,2.0,5.0,81,0.00,,,0.00,weatherlink.com 1.10,2013-04-17 11:42:00,
2013-04-17 07:57:00,40.1,34.0,30.22,NNE,22,2.0,6.0,78,0.00,,,0.00,weatherlink.com 1.10,2013-04-17 11:57:00,
2013-04-17 08:12:00,40.6,34.0,30.22,North,5,5.0,9.0,77,0.00,,,0.00,weatherlink.com 1.10,2013-04-17 12:12:00,
2013-04-17 08:27:00,41.2,35.0,30.23,NW,307,4.0,8.0,77,0.00,,,0.00,weatherlink.com 1.10,2013-04-17 12:27:00,
2013-04-17 08:42:00,41.6,35.0,30.23,North,5,9.0,10.0,76,0.00,,,0.00,weatherlink.com 1.10,2013-04-17 12:42:00,
2013-04-17 08:57:00,41.5,35.0,30.23,North,355,6.0,9.0,77,0.00,,,0.00,weatherlink.com 1.10,2013-04-17 12:57:00,
2013-04-17 09:12:00,41.7,34.0,30.23,North,5,4.0,9.0,75,0.00,,,0.00,weatherlink.com 1.10,2013-04-17 13:12:00,
2013-04-17 09:27:00,42.3,35.0,30.23,NW,307,4.0,7.0,75,0.00,,,0.00,weatherlink.com 1.10,2013-04-17 13:27:00,
2013-04-17 09:42:00,42.7,35.0,30.23,WNW,284,2.0,7.0,75,0.00,,,0.00,weatherlink.com 1.10,2013-04-17 13:42:00,
2013-04-17 09:57:00,43.6,35.0,30.23,North,11,5.0,7.0,73,0.00,,,0.00,weatherlink.com 1.10,2013-04-17 13:57:00,
2013-04-17 10:12:00,43.8,36.0,30.23,NW,309,5.0,8.0,73,0.00,,,0.00,weatherlink.com 1.10,2013-04-17 14:12:00,
2013-04-17 10:27:00,44.7,37.0,30.23,NW,308,1.0,6.0,74,0.00,,,0.00,weatherlink.com 1.10,2013-04-17 14:27:00,
2013-04-17 10:42:00,45.0,36.0,30.23,NW,309,2.0,6.0,72,0.00,,,0.00,weatherlink.com 1.10,2013-04-17 14:42:00,
2013-04-17 10:57:00,45.3,37.0,30.23,WNW,303,5.0,8.0,72,0.00,,,0.00,weatherlink.com 1.10,2013-04-17 14:57:00,
2013-04-17 11:12:00,46.4,37.0,30.23,WNW,288,2.0,9.0,71,0.00,,,0.00,weatherlink.com 1.10,2013-04-17 15:12:00,
2013-04-17 11:27:00,47.2,38.0,30.23,North,5,5.0,9.0,71,0.00,,,0.00,weatherlink.com 1.10,2013-04-17 15:27:00,
2013-04-17 11:42:00,47.7,38.0,30.23,NW,315,1.0,9.0,68,0.00,,,0.00,weatherlink.com 1.10,2013-04-17 15:42:00,
2013-04-17 11:57:00,48.4,37.0,30.23,NNE,17,7.0,11.0,64,0.00,,,0.00,weatherlink.com 1.10,2013-04-17 15:57:00,
2013-04-17 12:12:00,49.0,36.0,30.23,NNW,346,6.0,11.0,62,0.00,,,0.00,weatherlink.com 1.10,2013-04-17 16:12:00,
2013-04-17 12:27:00,49.7,37.0,30.22,NE,46,6.0,9.0,62,0.00,,,0.00,weatherlink.com 1.10,2013-04-17 16:27:00,
2013-04-17 12:42:00,50.1,37.0,30.23,NE,51,4.0,11.0,60,0.00,,,0.00,weatherlink.com 1.10,2013-04-17 16:42:00,
2013-04-17 12:57:00,50.3,37.0,30.22,WNW,298,7.0,11.0,61,0.00,,,0.00,weatherlink.com 1.10,2013-04-17 16:57:00,
2013-04-17 13:12:00,51.1,39.0,30.22,ENE,69,7.0,11.0,63,0.00,,,0.00,weatherlink.com 1.10,2013-04-17 17:12:00,
2013-04-17 13:27:00,51.6,36.0,30.22,NNE,20,7.0,12.0,56,0.00,,,0.00,weatherlink.com 1.10,2013-04-17 17:27:00,
2013-04-17 13:42:00,51.7,37.0,30.22,NE,49,3.0,14.0,57,0.00,,,0.00,weatherlink.com 1.10,2013-04-17 17:42:00,
2013-04-17 13:57:00,52.6,37.0,30.22,ENE,76,6.0,10.0,56,0.00,,,0.00,weatherlink.com 1.10,2013-04-17 17:57:00,
2013-04-17 14:12:00,52.1,38.0,30.22,North,5,13.0,14.0,59,0.00,,,0.00,weatherlink.com 1.10,2013-04-17 18:12:00,
2013-04-17 14:27:00,53.3,41.0,30.21,North,5,10.0,11.0,63,0.00,,,0.00,weatherlink.com 1.10,2013-04-17 18:27:00,
2013-04-17 14:42:00,53.3,39.0,30.22,NE,50,6.0,12.0,59,0.00,,,0.00,weatherlink.com 1.10,2013-04-17 18:42:00,
2013-04-17 14:57:00,53.5,37.0,30.21,NNE,15,9.0,12.0,55,0.00,,,0.00,weatherlink.com 1.10,2013-04-17 18:57:00,
2013-04-17 15:27:00,54.3,38.0,30.20,ENE,59,6.0,14.0,54,0.00,,,0.00,weatherlink.com 1.10,2013-04-17 19:27:00,
2013-04-17 15:42:00,54.0,37.0,30.20,NNE,13,9.0,13.0,52,0.00,,,0.00,weatherlink.com 1.10,2013-04-17 19:42:00,
2013-04-17 15:57:00,54.2,37.0,30.21,NNE,28,5.0,14.0,53,0.00,,,0.00,weatherlink.com 1.10,2013-04-17 19:57:00,
2013-04-17 16:12:00,54.7,39.0,30.20,North,360,6.0,14.0,55,0.00,,,0.00,weatherlink.com 1.10,2013-04-17 20:12:00,
2013-04-17 16:27:00,54.5,38.0,30.20,North,360,6.0,11.0,55,0.00,,,0.00,weatherlink.com 1.10,2013-04-17 20:27:00,
2013-04-17 16:42:00,54.8,38.0,30.20,ENE,71,7.0,18.0,53,0.00,,,0.00,weatherlink.com 1.10,2013-04-17 20:42:00,
2013-04-17 16:57:00,54.7,35.0,30.19,NNE,19,6.0,12.0,48,0.00,,,0.00,weatherlink.com 1.10,2013-04-17 20:57:00,
2013-04-17 17:13:00,54.6,36.0,30.20,NE,48,12.0,13.0,49,0.00,,,0.00,weatherlink.com 1.10,2013-04-17 21:13:00,
2013-04-17 17:28:00,54.3,35.0,30.20,ENE,63,5.0,11.0,48,0.00,,,0.00,weatherlink.com 1.10,2013-04-17 21:28:00,
2013-04-17 17:43:00,54.3,35.0,30.20,NNE,19,5.0,11.0,48,0.00,,,0.00,weatherlink.com 1.10,2013-04-17 21:43:00,
2013-04-17 17:58:00,53.5,36.0,30.20,ENE,58,7.0,13.0,51,0.00,,,0.00,weatherlink.com 1.10,2013-04-17 21:58:00,
2013-04-17 18:13:00,54.0,36.0,30.20,East,84,5.0,10.0,51,0.00,,,0.00,weatherlink.com 1.10,2013-04-17 22:13:00,
2013-04-17 18:28:00,53.4,35.0,30.20,NNE,22,8.0,9.0,50,0.00,,,0.00,weatherlink.com 1.10,2013-04-17 22:28:00,
2013-04-17 18:43:00,53.3,35.0,30.20,NNE,19,6.0,8.0,51,0.00,,,0.00,weatherlink.com 1.10,2013-04-17 22:43:00,
2013-04-17 18:58:00,52.1,35.0,30.20,NNE,16,5.0,8.0,52,0.00,,,0.00,weatherlink.com 1.10,2013-04-17 22:58:00,
2013-04-17 19:13:00,51.6,37.0,30.19,NNE,32,2.0,6.0,58,0.00,,,0.00,weatherlink.com 1.10,2013-04-17 23:13:00,
2013-04-17 19:28:00,50.9,37.0,30.19,NNE,15,3.0,5.0,60,0.00,,,0.00,weatherlink.com 1.10,2013-04-17 23:28:00,
2013-04-17 19:43:00,49.3,39.0,30.20,NNE,30,1.0,5.0,67,0.00,,,0.00,weatherlink.com 1.10,2013-04-17 23:43:00,
2013-04-17 19:58:00,48.2,38.0,30.20,North,5,1.0,5.0,68,0.00,,,0.00,weatherlink.com 1.10,2013-04-17 23:58:00,
2013-04-17 20:13:00,47.9,36.0,30.20,NNE,30,1.0,4.0,64,0.00,,,0.00,weatherlink.com 1.10,2013-04-18 00:13:00,
2013-04-17 20:28:00,47.6,36.0,30.20,ENE,65,1.0,4.0,64,0.00,,,0.00,weatherlink.com 1.10,2013-04-18 00:28:00,
2013-04-17 20:43:00,47.1,36.0,30.19,East,80,1.0,2.0,65,0.00,,,0.00,weatherlink.com 1.10,2013-04-18 00:43:00,
2013-04-17 20:58:00,46.3,34.0,30.19,ENE,78,0.0,4.0,63,0.00,,,0.00,weatherlink.com 1.10,2013-04-18 00:58:00,
2013-04-17 21:13:00,46.2,34.0,30.18,ESE,113,2.0,3.0,62,0.00,,,0.00,weatherlink.com 1.10,2013-04-18 01:13:00,
2013-04-17 21:28:00,46.4,34.0,30.18,ESE,119,3.0,5.0,63,0.00,,,0.00,weatherlink.com 1.10,2013-04-18 01:28:00,
2013-04-17 21:43:00,46.1,34.0,30.19,ESE,111,2.0,3.0,62,0.00,,,0.00,weatherlink.com 1.10,2013-04-18 01:43:00,
2013-04-17 21:58:00,45.8,35.0,30.18,ESE,108,1.0,1.0,67,0.00,,,0.00,weatherlink.com 1.10,2013-04-18 01:58:00,
2013-04-17 22:13:00,44.6,35.0,30.18,ESE,108,0.0,0.0,68,0.00,,,0.00,weatherlink.com 1.10,2013-04-18 02:13:00,
2013-04-17 22:28:00,43.7,34.0,30.18,ESE,108,1.0,1.0,69,0.00,,,0.00,weatherlink.com 1.10,2013-04-18 02:28:00,
2013-04-17 22:43:00,43.3,33.0,30.18,SE,128,0.0,0.0,68,0.00,,,0.00,weatherlink.com 1.10,2013-04-18 02:43:00,
2013-04-17 22:58:00,43.0,34.0,30.18,SE,128,0.0,1.0,71,0.00,,,0.00,weatherlink.com 1.10,2013-04-18 02:58:00,
2013-04-17 23:12:00,42.4,34.0,30.17,SSE,148,0.0,1.0,73,0.00,,,0.00,weatherlink.com 1.10,2013-04-18 03:12:00,
2013-04-17 23:27:00,41.9,35.0,30.16,SE,146,2.0,2.0,77,0.00,,,0.00,weatherlink.com 1.10,2013-04-18 03:27:00,
2013-04-17 23:42:00,41.3,35.0,30.15,SE,146,1.0,1.0,78,0.00,,,0.00,weatherlink.com 1.10,2013-04-18 03:42:00,
2013-04-17 23:57:00,42.1,34.0,30.15,ESE,115,0.0,5.0,74,0.00,,,0.00,weatherlink.com 1.10,2013-04-18 03:57:00,